Weather in Staraya Melovaya

Russia / Voronezh Oblast     50°17′03″N   40°51′51″E
temp.,
°C
wind,
m/s
gust,
m/s
humid.,
%
clouds,
%
prec.,
mm/h
press.,
hPa
HPBL,
m
2 july, sat
sat200:00+10n511775 0.0 1016384
03:00+8nnw5118554 0.0 1016342
06:00+12nnw8156424 0.1 1015807
09:00+16n9136153 0.1 10141218
12:00+18n9136134 0.2 10141560
15:00+21n101449100 0.8 10132210
18:00+20n914600 0.2 10141694
21:00+17nnw614671 0.2 1015647
3 july, sun
sun300:00+15nnw513720 0.0 1015312
03:00+12nnw411801 0.0 1015209
06:00+13nnw49790 0.0 1016230
09:00+20nnw57565 0.0 1015710
12:00+22nnw67525 0.0 10151016
15:00+23nnw585566 0.0 10141219
18:00+23nnw47602 0.3 10141294
21:00+17wnw22853 0.6 101415
4 july, mon
mon400:00+16n22901 0.0 101415
03:00+15nnw22900 0.0 101414
06:00+17nnw24830 0.0 1014130
09:00+23n56640 0.0 1014903
12:00+25nne56505 0.0 10151725
15:00+26nne674520 0.0 10151876
18:00+24nne565281 0.0 10151660
21:00+18ne357019 0.0 101678
5 july, tue
tue500:00+16e12730 0.0 101712
03:00+14wnw11761 0.0 101811
06:00+17nnw226922 0.0 101873
09:00+24wnw33470 0.0 1018660
12:00+27nne453894 0.0 10182399
15:00+26nnw444176 0.0 10171827
18:00+26n244264 0.0 10171880
21:00+20e11620 0.0 101811
6 july, wed
wed600:00+18ene117023 0.0 101811
03:00+17sse117426 0.0 101811
06:00+19s1168100 0.0 101917
09:00+25sw235189 0.0 1019435
12:00+29ssw11375 0.0 10182062
15:00+29ese223346 0.0 10172526
18:00+29ese22384 0.0 10171912
21:00+22e33565 0.0 101725